Location: Beaurecueil
(43.5122°N, 5.5450°E)
Time: 06:44:06
(UTC+00:00)

Cosmos 1939 Rocket - Pass Details

Date: 21 January 2021
Orbit: 531 x 585 km, 97.4° (Epoch: 06 March)

Event Time Altitude Azimuth Distance (km) Brightness Sun altitude
Rises 17:36:15 0° 167° (SSE) 2,793 6.5 -11.2°
Reaches altitude 10° 17:38:24 10° 168° (SSE) 1,895 5.6 -11.5°
Maximum altitude 17:42:31 86° 257° (WSW) 587 3.0 -12.3°
Drops below altitude 10° 17:46:38 10° 347° (NNW) 1,889 5.5 -13.0°
Sets 17:48:47 0° 348° (NNW) 2,784 6.4 -13.4°
